Zurück zum Katalog

STARLINK-30153

AktivKommunikationVLEO
NORAD 57510·PAYLOAD·🇺🇸 United States

Gestartet Aug 7, 2023 von Cape Canaveral Space Force Station

Loading…

Nächste Überflüge (nächste 24 Stunden)

TLE

AktuellSource: CelesTrak SupGP

Epoche: Sep 14, 2026, 21:12 UTC

1 57510C 23113R   26257.88381944  .00035277  00000+0  12772-2 0  2576
2 57510  43.0043  27.2634 0001968 276.2873 100.7494 15.27572227    13

Verfolge STARLINK-30153 in Echtzeit mit AllMySat

Download on the App Store